TimeCST,TemperatureF,Dew PointF,Humidity,Sea Level PressureIn,VisibilityMPH,Wind Direction,Wind SpeedMPH,Gust SpeedMPH,PrecipitationIn,Events,Conditions,WindDirDegrees,DateUTC
12:15 AM,62.6,53.6,72,30.00,10.0,South,17.3,25.3,N/A,,Overcast,180,2012-12-02 06:15:00
12:35 AM,62.6,53.6,72,30.00,10.0,South,16.1,27.6,N/A,,Overcast,180,2012-12-02 06:35:00
12:55 AM,62.6,51.8,68,30.00,10.0,South,15.0,26.5,N/A,,Overcast,190,2012-12-02 06:55:00
1:15 AM,60.8,51.8,72,30.00,10.0,South,15.0,21.9,N/A,,Overcast,180,2012-12-02 07:15:00
1:35 AM,62.6,51.8,68,30.00,10.0,South,16.1,26.5,N/A,,Overcast,180,2012-12-02 07:35:00
1:55 AM,60.8,51.8,72,29.99,10.0,South,18.4,24.2,N/A,,Overcast,180,2012-12-02 07:55:00
2:15 AM,60.8,51.8,72,30.00,10.0,South,17.3,24.2,N/A,,Overcast,180,2012-12-02 08:15:00
2:35 AM,60.8,51.8,72,30.00,10.0,South,18.4,23.0,N/A,,Overcast,180,2012-12-02 08:35:00
2:55 AM,60.8,51.8,72,30.00,10.0,South,18.4,21.9,N/A,,Overcast,190,2012-12-02 08:55:00
3:15 AM,60.8,51.8,72,30.00,10.0,South,15.0,21.9,N/A,,Overcast,190,2012-12-02 09:15:00
3:35 AM,60.8,51.8,72,30.00,10.0,South,13.8,21.9,N/A,,Mostly Cloudy,190,2012-12-02 09:35:00
3:55 AM,60.8,53.6,77,30.00,10.0,South,12.7,18.4,N/A,,Mostly Cloudy,190,2012-12-02 09:55:00
4:15 AM,60.8,53.6,77,29.99,10.0,South,11.5,19.6,N/A,,Overcast,190,2012-12-02 10:15:00
4:35 AM,60.8,53.6,77,30.00,10.0,South,10.4,-,N/A,,Overcast,190,2012-12-02 10:35:00
4:55 AM,60.8,53.6,77,30.00,10.0,South,10.4,17.3,N/A,,Overcast,190,2012-12-02 10:55:00
5:15 AM,60.8,53.6,77,30.01,10.0,South,13.8,18.4,N/A,,Mostly Cloudy,190,2012-12-02 11:15:00
5:35 AM,59.0,55.4,88,30.00,10.0,South,13.8,21.9,N/A,,Mostly Cloudy,190,2012-12-02 11:35:00
5:55 AM,59.0,55.4,88,30.01,10.0,South,12.7,20.7,N/A,,Scattered Clouds,190,2012-12-02 11:55:00
6:15 AM,59.0,55.4,88,30.02,10.0,South,11.5,17.3,N/A,,Clear,190,2012-12-02 12:15:00
6:35 AM,59.0,55.4,88,30.03,10.0,SSW,12.7,16.1,N/A,,Clear,200,2012-12-02 12:35:00
6:55 AM,59.0,57.2,94,30.04,10.0,SSW,9.2,17.3,N/A,,Clear,200,2012-12-02 12:55:00
7:15 AM,59.0,57.2,94,30.04,10.0,South,11.5,16.1,N/A,,Clear,190,2012-12-02 13:15:00
7:35 AM,59.0,57.2,94,30.04,10.0,South,12.7,17.3,N/A,,Clear,190,2012-12-02 13:35:00
7:55 AM,60.8,59.0,94,30.05,10.0,SSW,11.5,18.4,N/A,,Clear,200,2012-12-02 13:55:00
8:15 AM,60.8,59.0,94,30.05,10.0,South,10.4,-,N/A,,Scattered Clouds,190,2012-12-02 14:15:00
8:35 AM,62.6,60.8,94,30.06,10.0,SSW,11.5,17.3,N/A,,Scattered Clouds,200,2012-12-02 14:35:00
8:55 AM,62.6,60.8,94,30.06,10.0,SSW,10.4,17.3,N/A,,Clear,200,2012-12-02 14:55:00
9:15 AM,62.6,60.8,94,30.06,10.0,SSW,10.4,18.4,N/A,,Clear,200,2012-12-02 15:15:00
9:35 AM,64.4,62.6,94,30.07,10.0,SSW,10.4,16.1,N/A,,Clear,200,2012-12-02 15:35:00
9:55 AM,64.4,62.6,94,30.07,10.0,SSW,15.0,20.7,N/A,,Scattered Clouds,200,2012-12-02 15:55:00
10:15 AM,66.2,62.6,88,30.07,10.0,South,12.7,18.4,N/A,,Scattered Clouds,190,2012-12-02 16:15:00
10:35 AM,66.2,64.4,94,30.07,10.0,SSW,9.2,17.3,N/A,,Overcast,200,2012-12-02 16:35:00
10:55 AM,66.2,64.4,94,30.07,10.0,SSW,9.2,19.6,N/A,,Overcast,200,2012-12-02 16:55:00
11:15 AM,66.2,64.4,94,30.06,10.0,SSW,11.5,-,N/A,,Overcast,200,2012-12-02 17:15:00
11:35 AM,66.2,64.4,94,30.05,10.0,South,13.8,18.4,N/A,,Overcast,190,2012-12-02 17:35:00
11:55 AM,68.0,64.4,88,30.04,10.0,SSW,11.5,16.1,N/A,,Mostly Cloudy,210,2012-12-02 17:55:00
12:15 PM,66.2,64.4,94,30.04,10.0,South,10.4,-,N/A,,Overcast,190,2012-12-02 18:15:00
12:35 PM,66.2,64.4,94,30.03,10.0,South,10.4,17.3,N/A,,Overcast,190,2012-12-02 18:35:00
12:55 PM,68.0,64.4,88,30.02,10.0,South,12.7,-,N/A,,Scattered Clouds,180,2012-12-02 18:55:00
1:15 PM,68.0,64.4,88,30.02,10.0,South,12.7,-,N/A,,Clear,180,2012-12-02 19:15:00
1:35 PM,68.0,64.4,88,30.02,10.0,South,9.2,-,N/A,,Scattered Clouds,180,2012-12-02 19:35:00
1:55 PM,68.0,64.4,88,30.02,10.0,South,12.7,17.3,N/A,,Mostly Cloudy,190,2012-12-02 19:55:00
2:15 PM,66.2,64.4,94,30.01,10.0,South,10.4,-,N/A,,Scattered Clouds,190,2012-12-02 20:15:00
2:35 PM,66.2,64.4,94,30.01,10.0,South,15.0,-,N/A,,Clear,170,2012-12-02 20:35:00
2:55 PM,66.2,64.4,94,30.02,10.0,South,13.8,-,N/A,,Clear,180,2012-12-02 20:55:00
3:15 PM,66.2,64.4,94,30.02,10.0,South,9.2,19.6,N/A,,Scattered Clouds,180,2012-12-02 21:15:00
3:35 PM,64.4,64.4,100,30.02,10.0,South,12.7,-,N/A,,Scattered Clouds,170,2012-12-02 21:35:00
3:55 PM,64.4,64.4,100,30.03,10.0,South,10.4,-,N/A,,Clear,170,2012-12-02 21:55:00
4:15 PM,64.4,64.4,100,30.03,10.0,South,8.1,-,N/A,,Mostly Cloudy,170,2012-12-02 22:15:00
4:35 PM,64.4,64.4,100,30.03,10.0,South,9.2,-,N/A,,Mostly Cloudy,170,2012-12-02 22:35:00
4:55 PM,64.4,64.4,100,30.03,10.0,South,10.4,-,N/A,,Mostly Cloudy,170,2012-12-02 22:55:00
5:15 PM,62.6,62.6,100,30.04,10.0,SSE,6.9,-,N/A,,Mostly Cloudy,160,2012-12-02 23:15:00
5:35 PM,62.6,62.6,100,30.04,10.0,South,9.2,-,N/A,,Scattered Clouds,170,2012-12-02 23:35:00
5:55 PM,62.6,62.6,100,30.04,10.0,South,9.2,-,N/A,,Clear,170,2012-12-02 23:55:00
6:15 PM,62.6,62.6,100,30.03,10.0,South,12.7,-,N/A,,Clear,180,2012-12-03 00:15:00
6:35 PM,64.4,64.4,100,30.03,10.0,South,10.4,16.1,N/A,,Clear,180,2012-12-03 00:35:00
6:55 PM,64.4,64.4,100,30.04,10.0,South,11.5,16.1,N/A,,Clear,180,2012-12-03 00:55:00
7:15 PM,64.4,64.4,100,30.04,10.0,South,10.4,-,N/A,,Mostly Cloudy,180,2012-12-03 01:15:00
7:35 PM,62.6,62.6,100,30.05,10.0,South,6.9,-,N/A,,Mostly Cloudy,180,2012-12-03 01:35:00
7:55 PM,62.6,62.6,100,30.05,10.0,South,9.2,-,N/A,,Scattered Clouds,180,2012-12-03 01:55:00
8:15 PM,62.6,62.6,100,30.05,10.0,South,9.2,-,N/A,,Clear,170,2012-12-03 02:15:00
8:35 PM,62.6,62.6,100,30.05,10.0,South,9.2,-,N/A,,Clear,170,2012-12-03 02:35:00
8:55 PM,62.6,62.6,100,30.06,10.0,South,10.4,-,N/A,,Scattered Clouds,180,2012-12-03 02:55:00
9:15 PM,62.6,62.6,100,30.05,10.0,South,9.2,-,N/A,,Mostly Cloudy,180,2012-12-03 03:15:00
9:35 PM,62.6,62.6,100,30.05,10.0,South,9.2,-,N/A,,Mostly Cloudy,180,2012-12-03 03:35:00
9:55 PM,62.6,62.6,100,30.05,10.0,South,9.2,-,N/A,,Overcast,170,2012-12-03 03:55:00
10:15 PM,62.6,62.6,100,30.05,10.0,South,10.4,16.1,N/A,,Mostly Cloudy,180,2012-12-03 04:15:00
10:55 PM,62.6,62.6,100,30.05,10.0,South,9.2,-,N/A,,Mostly Cloudy,190,2012-12-03 04:55:00
11:15 PM,62.6,62.6,100,30.05,10.0,South,9.2,-,N/A,,Scattered Clouds,180,2012-12-03 05:15:00
11:35 PM,62.6,62.6,100,30.06,10.0,South,8.1,-,N/A,,Scattered Clouds,180,2012-12-03 05:35:00
11:55 PM,62.6,62.6,100,30.05,10.0,South,10.4,-,N/A,,Clear,180,2012-12-03 05:55:00